This is the latest recevied weather packets stored in our database for station/object K9YK-13. If no packets are shown the sender has not sent any weather packets the latest 10 day(s).
| Time | Temp. | Humidity | Pressure | Rain* | Wind** | Luminosity | Snow |
|---|---|---|---|---|---|---|---|
| 1778096469 | 16.67° C | 46% | 0 hPa | 0 mm | - | - | - |
| 1778096169 | 16.67° C | 47% | 0 hPa | 0 mm | - | - | - |
| 1778095869 | 16.11° C | 47% | 0 hPa | 0 mm | - | - | - |
| 1778095569 | 16.11° C | 48% | 0 hPa | 0 mm | - | - | - |
| 1778095269 | 17.22° C | 49% | 0 hPa | 0 mm | - | - | - |
| 1778094969 | 16.67° C | 45% | 0 hPa | 0 mm | - | - | - |
| 1778094669 | 17.22° C | 46% | 0 hPa | 0 mm | - | - | - |
| 1778094369 | 18.33° C | 45% | 0 hPa | 0 mm | - | - | - |
| 1778094069 | 17.78° C | 48% | 0 hPa | 0 mm | - | - | - |
| 1778093769 | 18.33° C | 46% | 0 hPa | 0 mm | - | - | - |
| 1778093469 | 16.67° C | 56% | 0 hPa | 0 mm | - | - | - |
| 1778093169 | 16.67° C | 51% | 0 hPa | 0 mm | - | - | - |
| 1778092869 | 16.67° C | 49% | 0 hPa | 0 mm | - | - | - |
| 1778092569 | 16.11° C | 53% | 0 hPa | 0 mm | - | - | - |
| 1778092269 | 16.11° C | 51% | 0 hPa | 0 mm | - | - | - |
| 1778091969 | 16.11° C | 53% | 0 hPa | 0 mm | - | - | - |
| 1778091669 | 15.56° C | 55% | 0 hPa | 0 mm | - | - | - |
| 1778091369 | 15° C | 56% | 0 hPa | 0 mm | - | - | - |
| 1778091069 | 13.89° C | 58% | 0 hPa | 0 mm | - | - | - |
| 1778090769 | 15° C | 59% | 0 hPa | 0 mm | - | - | - |
| 1778090469 | 15° C | 59% | 0 hPa | 0 mm | - | - | - |
| 1778090169 | 14.44° C | 60% | 0 hPa | 0 mm | - | - | - |
| 1778089869 | 14.44° C | 64% | 0 hPa | 0 mm | - | - | - |
| 1778089569 | 14.44° C | 64% | 0 hPa | 0 mm | - | - | - |
| 1778089269 | 13.33° C | 63% | 0 hPa | 0 mm | - | - | - |
* Rain latest hour (hover to see other rain measurements)
** Current wind speed in m/s (hover to see current wind gust speed)